カタログに戻る

STARLINK-32002

運用中通信VLEO
NORAD 60200·PAYLOAD·🇺🇸 United States

打ち上げ Jul 3, 2024 から Cape Canaveral Space Force Station

Loading…

次のパス (今後24時間)

TLE

最新Source: CelesTrak SupGP

元期: Sep 14, 2026, 15:27 UTC

1 60200C 24124T   26257.64423611  .00062781  00000+0  20194-2 0  2578
2 60200  53.1567 163.3883 0001148  92.0488 341.9789 15.31662118    10

AllMySatでSTARLINK-32002をリアルタイム追跡

Download on the App Store